Location: *
(44.9308°N, 123.0197°W)
Time: 04:47:14
(UTC+00:00)

Cosmos 2297 Rocket - Pass Details

Date: 09 April 2020
Orbit: 840 x 843 km, 71.0° (Epoch: 24 May)

Event Time Altitude Azimuth Distance (km) Brightness Sun altitude
Exits shadow 12:14:28 15° 278° (W) 2,134 3.8 -14.6°
Maximum altitude 12:17:14 21° 314° (NW) 1,833 3.8 -14.1°
Drops below altitude 10° 12:21:24 10° 1° (N) 2,472 5.0 -13.5°
Sets 12:24:31 0° 18° (NNE) 3,411 6.0 -13.0°
